GEFSCGP_500_meanwind_180.txt.gz
Wind_Speed
25 24 22 21 21 20 20 19 18 18 18 18 17 17 17 16 15 13 13 12 12 11 12 12 12 13 13 12 12 12 12 12 13 13 12 12 12 12 12 12 12 12 12 12
25 23 22 24 23 22 21 20 19 19 19 18 17 16 16 16 14 13 13 12 12 12 11 11 11 12 12 12 13 13 12 12 12 12 13 13 12 12 12 13 12 12 13 13
23 22 24 25 24 23 22 20 20 20 21 20 18 16 16 15 14 13 13 12 12 12 12 10 9 10 12 13 13 14 14 14 14 14 13 12 12 11 12 13 13 12 13 13
25 25 26 26 24 23 22 21 22 23 22 21 20 18 16 15 15 14 14 14 14 13 12 11 11 11 12 13 14 15 14 15 14 13 13 13 12 12 13 13 13 14 13 14
25 25 26 25 23 23 22 23 23 24 23 22 21 19 16 16 15 15 14 14 14 13 13 13 13 13 12 13 14 15 15 15 14 14 13 13 13 13 13 13 13 13 13 13
26 26 26 24 24 24 24 24 24 24 23 23 20 19 16 16 15 15 15 15 14 14 14 14 14 13 13 14 14 16 16 15 15 15 15 14 14 14 14 13 13 13 13 14
27 27 26 26 25 25 26 26 25 25 24 22 20 20 16 15 15 15 15 15 14 14 14 15 14 14 14 14 15 15 16 16 16 15 15 15 14 14 13 13 13 13 13 13
27 27 27 26 26 25 26 26 25 25 24 21 20 20 17 15 15 15 15 15 14 14 15 15 15 14 14 15 15 16 17 16 16 15 14 15 15 14 14 14 13 13 13 13
26 25 25 25 26 26 26 25 24 24 23 21 20 18 17 16 15 15 15 15 15 14 14 15 15 15 15 15 15 16 16 17 16 16 15 15 15 15 15 15 14 13 13 13
25 25 25 26 27 28 26 25 24 24 22 21 19 18 16 16 16 15 15 15 14 14 14 14 14 15 15 15 15 16 17 17 17 17 16 16 16 16 16 15 14 14 13 13
26 26 26 28 29 28 27 26 25 23 22 20 19 16 14 14 14 14 14 14 14 14 15 15 15 15 15 14 14 15 16 17 17 17 17 16 16 16 16 15 15 14 14 14
26 27 28 29 29 28 27 26 24 23 21 19 18 14 14 13 13 13 13 13 14 14 15 16 15 15 15 15 15 15 15 16 16 17 17 17 17 16 16 16 16 15 15 15
27 27 28 30 30 29 28 26 24 22 20 19 18 14 13 13 13 13 12 13 13 14 15 16 16 15 15 15 16 15 16 16 16 16 17 18 17 16 15 15 15 15 15 15
27 28 28 28 27 27 27 26 24 23 21 19 18 16 14 14 13 12 12 13 13 14 14 14 16 16 15 15 15 16 16 16 16 17 17 17 17 17 16 16 16 16 15 15
28 28 28 27 27 28 27 27 26 24 22 20 18 16 15 14 13 13 13 13 13 13 14 14 14 15 15 15 16 17 17 17 16 17 17 18 18 18 17 17 17 17 16 16
29 29 28 28 28 28 27 27 26 25 23 21 18 17 15 14 14 14 14 14 14 14 14 14 14 14 15 16 17 17 17 17 17 17 18 18 18 18 18 18 17 17 17 17
28 28 28 27 28 28 28 26 25 24 23 22 20 18 16 15 14 13 12 11 12 13 13 13 13 14 16 17 17 18 18 18 19 18 18 18 18 18 18 18 17 17 18 17
29 28 27 27 27 28 26 25 24 23 22 20 18 17 16 16 15 13 12 11 12 13 13 13 14 14 16 17 18 17 18 18 17 18 18 18 18 18 18 18 18 18 18 18
30 29 28 28 28 27 25 25 24 23 22 21 19 18 17 17 16 15 15 14 14 14 13 13 13 14 15 16 17 17 17 17 17 17 18 18 19 18 18 18 18 17 17 17
30 30 30 29 29 28 26 25 24 23 23 21 21 20 18 18 17 17 17 16 16 15 14 14 13 14 15 16 16 17 17 17 18 18 18 18 18 18 19 19 18 18 18 18
30 30 30 29 30 29 27 26 25 23 21 21 20 20 19 18 18 18 18 17 17 16 16 15 15 16 16 16 16 17 16 16 18 19 19 19 19 18 19 19 19 19 19 19
31 29 29 28 29 29 28 26 25 23 22 22 21 20 19 18 17 18 18 18 18 17 17 17 16 17 17 17 17 17 18 18 18 19 20 19 20 19 19 20 20 21 21 21
30 30 29 29 29 28 27 26 25 24 23 22 21 21 20 19 18 18 18 18 18 18 18 18 18 18 18 18 18 18 19 20 20 20 20 20 20 21 21 21 21 20 21 21
31 30 30 30 28 27 26 25 25 24 24 23 22 22 22 21 20 20 19 18 18 18 19 19 19 19 19 19 20 20 20 20 20 21 21 21 20 21 21 21 22 22 23 23
29 29 29 28 27 27 27 25 24 23 23 22 21 22 22 22 21 20 19 18 18 19 20 20 20 20 20 20 21 20 20 20 20 21 21 22 22 22 22 23 23 24 25 25
28 29 28 27 26 26 26 25 26 25 24 23 22 21 21 21 20 20 20 20 19 19 19 19 19 21 22 22 22 22 22 21 21 21 21 22 22 23 24 25 25 26 27 28

GEFSCGP_500_meanwind_186.txt.gz
Wind_Speed
23 23 22 20 20 21 20 19 19 20 18 16 15 15 14 13 13 12 12 12 11 11 12 12 12 13 13 14 14 14 14 14 15 15 15 15 15 14 14 14 14 13 13 13
23 23 22 23 23 22 21 20 20 20 18 17 16 15 14 13 12 12 12 12 12 12 13 12 12 12 13 13 14 15 15 15 16 16 15 14 14 15 15 14 14 14 13 13
23 23 24 23 23 22 21 21 21 20 18 17 16 15 15 14 13 12 12 12 12 12 13 13 13 13 12 12 13 15 15 15 15 16 15 14 13 13 13 13 14 14 14 13
26 25 25 24 23 22 22 22 22 20 18 17 16 14 16 15 14 13 12 12 12 12 13 13 14 13 13 13 13 14 15 14 14 15 15 13 12 13 12 13 14 14 13 13
26 26 25 24 23 23 23 23 22 20 19 18 16 15 16 15 14 13 13 13 13 13 12 13 14 14 14 13 13 13 15 15 14 14 15 14 13 13 13 13 14 13 13 13
26 26 26 25 25 25 25 23 22 21 19 19 18 17 16 17 15 14 14 14 14 13 13 13 14 14 14 14 13 13 13 14 15 15 15 15 14 14 13 13 14 14 13 13
27 27 27 27 27 27 26 24 22 20 20 19 19 18 17 17 16 16 16 15 14 13 13 13 13 13 13 13 13 14 14 15 15 16 16 16 15 15 14 14 15 15 14 13
26 27 27 27 27 26 24 24 22 19 18 19 20 18 17 17 16 16 16 15 15 14 14 14 14 14 14 14 14 14 14 15 16 16 16 16 16 16 15 14 15 15 15 15
26 26 27 27 26 26 25 25 23 21 19 17 18 18 17 17 17 16 16 16 15 15 14 14 15 15 15 15 15 15 15 15 15 16 17 17 17 16 16 15 14 15 15 15
27 26 27 27 27 27 26 24 24 22 20 17 17 17 16 16 16 16 16 16 16 15 14 14 14 15 15 15 15 16 16 15 16 16 16 17 17 17 16 16 15 16 16 16
27 26 27 29 29 27 27 26 24 22 21 17 14 15 16 15 15 15 15 16 16 15 15 14 15 15 16 15 15 15 15 15 14 15 16 16 17 16 16 15 15 16 16 16
27 26 26 27 28 27 27 25 24 23 22 19 15 15 16 15 15 15 15 15 15 15 15 15 15 14 15 15 14 14 15 15 14 14 15 16 16 16 15 16 16 16 16 16
29 29 28 28 29 29 28 27 25 23 21 19 16 15 16 15 15 15 15 15 14 14 14 15 15 14 14 14 14 14 15 15 16 16 16 16 16 16 15 15 16 16 15 15
29 29 28 26 25 27 28 26 25 24 22 19 17 15 15 14 14 15 15 14 14 14 15 15 16 15 15 15 15 15 16 16 16 16 17 17 16 16 15 16 16 16 15 15
30 29 28 27 26 25 26 25 25 24 22 20 18 16 15 15 15 15 15 14 14 14 15 15 16 16 16 16 16 16 17 16 17 17 17 18 17 17 17 17 17 17 15 15
30 29 28 27 27 26 26 26 26 25 23 21 20 18 16 15 15 15 14 14 14 14 14 15 15 16 16 16 17 17 17 18 18 18 18 18 18 19 18 18 18 18 17 16
29 28 28 27 28 28 29 27 26 25 23 22 21 19 17 16 15 14 14 15 15 14 14 15 15 15 16 16 16 17 18 18 18 19 18 18 19 19 19 20 20 19 18 18
30 29 28 28 30 31 29 27 26 25 24 22 21 20 19 17 16 16 15 15 14 15 15 15 16 16 16 16 16 16 17 17 18 18 18 18 20 20 21 21 21 20 20 19
30 30 30 29 29 29 28 27 26 25 23 22 22 21 20 18 17 16 16 15 15 15 15 16 16 15 16 16 17 16 17 17 18 19 18 19 19 20 21 21 21 21 20 20
31 31 31 31 29 29 28 26 25 24 23 22 22 21 20 19 18 18 17 16 15 16 15 15 15 15 15 16 17 18 17 17 18 19 20 20 20 20 20 20 20 20 20 21
32 32 31 30 29 28 27 25 24 25 23 22 22 22 22 21 20 19 18 17 16 16 16 15 16 16 16 16 16 16 16 17 17 18 18 19 19 20 20 20 20 20 20 20
32 32 33 30 28 29 27 26 26 24 22 21 22 23 23 21 20 19 19 18 18 17 17 17 17 16 16 16 16 16 16 16 16 17 17 18 18 19 19 19 20 20 19 19
32 32 32 31 30 28 27 26 25 23 23 22 22 22 22 22 21 20 19 19 19 18 18 18 17 17 17 17 16 16 16 16 16 17 17 17 17 19 19 20 20 20 20 21
32 30 29 29 29 27 27 26 25 24 23 22 22 22 21 21 21 21 21 20 20 19 20 19 18 18 18 17 17 18 18 18 18 18 18 18 18 19 19 20 21 21 22 23
31 30 29 28 27 27 27 26 26 26 25 23 22 21 21 21 20 21 21 22 22 21 20 20 20 19 19 20 19 19 19 18 19 19 18 19 19 20 20 21 22 22 23 23
32 31 30 29 28 26 25 26 26 26 25 24 23 22 22 21 21 21 21 21 21 21 21 21 21 21 20 20 20 20 21 20 19 19 19 19 20 20 21 21 22 23 23 24

GEFSCGP_500_meanwind_192.txt.gz
Wind_Speed
24 24 23 20 19 18 16 15 15 15 16 17 16 14 15 12 12 13 14 14 12 12 12 12 11 11 11 11 11 11 12 13 14 14 14 14 14 14 14 14 14 14 14 13
25 24 22 21 21 21 21 19 17 16 18 18 16 15 16 14 13 14 15 14 14 13 13 13 13 12 11 11 12 12 12 13 13 14 14 14 14 14 14 14 14 14 14 13
24 21 23 24 23 23 22 20 18 18 18 19 18 16 18 17 15 14 14 15 15 14 13 13 12 12 12 11 11 12 12 13 13 13 12 13 14 14 14 14 13 13 13 13
24 23 24 25 24 24 22 20 20 20 20 18 17 16 16 16 16 15 15 16 15 14 13 13 13 13 12 12 12 12 12 12 12 11 11 12 13 14 14 13 12 12 13 13
24 25 26 26 25 24 22 21 22 21 20 19 17 16 17 18 18 16 15 15 15 15 14 14 13 13 13 12 12 12 12 12 12 12 12 12 13 13 12 12 12 12 12 12
24 25 26 25 24 24 23 23 23 23 21 22 19 16 18 19 19 16 14 14 16 16 16 15 13 12 12 13 13 12 13 13 12 12 13 13 13 12 12 11 11 11 12 12
26 26 26 26 26 26 26 25 23 22 23 21 18 18 19 18 18 17 15 16 17 17 17 16 14 12 12 12 13 13 12 12 12 13 13 13 13 13 12 12 12 11 12 12
25 25 26 26 27 27 27 26 23 20 18 18 19 21 20 19 19 18 18 18 18 17 16 16 15 13 12 12 12 12 12 13 13 13 13 13 13 14 13 12 12 11 12 12
22 22 24 26 26 27 27 26 22 19 17 17 17 18 18 20 20 19 18 18 19 18 17 16 15 13 13 12 12 12 12 13 14 13 13 14 14 14 14 13 13 12 12 12
21 21 23 25 26 27 26 25 26 25 22 19 18 18 18 19 18 17 18 18 19 18 16 16 15 14 14 13 13 13 12 13 13 14 14 13 13 14 14 14 14 13 12 12
24 21 21 24 27 27 28 28 28 25 22 18 17 18 18 18 15 16 18 18 17 17 17 16 16 16 15 14 14 14 14 14 14 14 14 14 13 14 14 13 13 14 13 12
27 24 23 24 24 24 27 28 28 28 25 22 21 19 18 18 15 15 17 18 18 17 17 16 16 14 15 15 15 15 14 14 14 14 14 14 13 13 13 13 14 14 13 12
28 28 26 25 25 26 28 28 27 28 26 24 22 21 20 18 15 15 18 18 18 17 16 16 16 15 16 16 15 15 15 14 14 14 14 14 14 13 13 14 14 14 13 13
29 30 29 26 25 26 27 28 28 28 27 25 23 23 23 18 15 15 18 18 18 18 17 16 16 16 16 16 16 16 15 15 14 14 14 14 14 14 14 15 15 14 13 13
31 31 31 29 27 27 27 27 28 29 28 25 23 26 25 22 19 17 17 18 19 19 18 17 17 16 16 16 16 16 16 16 15 15 15 15 15 15 15 15 15 15 14 14
32 32 32 31 28 27 28 29 28 29 28 26 25 27 25 23 21 21 20 20 20 19 18 18 18 17 16 16 16 15 15 15 15 16 16 16 16 16 15 16 16 15 15 15
32 34 33 31 29 27 27 27 27 28 27 28 28 28 25 24 22 21 22 21 21 20 19 18 17 17 17 16 16 16 16 16 16 16 16 16 16 16 15 16 16 16 16 15
32 33 33 31 30 30 27 25 26 27 28 29 30 29 29 26 24 22 22 21 21 20 19 19 18 17 17 17 17 17 17 17 17 17 18 17 17 17 17 18 18 18 17 16
31 32 31 31 31 30 27 25 26 29 30 30 32 32 30 27 25 25 24 21 20 19 19 18 17 17 16 17 17 17 17 17 18 17 17 17 17 18 18 19 19 19 18 18
31 32 32 33 32 31 31 30 29 30 31 32 32 32 30 28 27 25 21 20 19 19 19 18 17 17 17 17 17 17 18 17 18 17 17 17 17 18 18 19 19 18 18 18
32 32 33 33 33 32 31 30 30 32 32 31 30 30 29 28 26 24 21 20 19 18 18 18 18 18 17 17 17 18 18 17 17 17 18 18 18 17 17 17 18 18 19 19
32 31 33 32 32 33 30 31 32 33 31 31 29 29 30 28 26 25 22 21 20 19 18 18 18 18 18 18 18 18 17 17 18 18 18 18 18 19 18 18 19 19 21 21
34 35 34 34 33 34 31 31 31 30 30 30 28 28 28 28 26 24 23 23 22 21 20 19 19 19 18 18 17 17 18 18 18 17 17 18 18 18 19 19 19 20 20 20
35 35 35 34 32 31 32 32 30 29 29 27 27 27 28 27 25 23 22 23 22 21 21 20 20 20 19 19 19 19 19 19 19 18 18 18 18 18 18 19 19 19 20 20
34 35 35 33 34 33 32 31 29 29 28 27 27 26 26 25 24 24 23 22 22 22 22 21 21 21 21 20 20 20 20 20 20 20 20 20 20 20 20 20 20 21 21 21
33 33 34 33 32 32 31 29 29 27 28 27 27 27 26 25 24 23 22 22 22 22 22 22 22 22 22 21 21 20 20 20 20 19 20 20 21 21 22 22 21 21 21 21

GEFSCGP_500_meanwind_198.txt.gz
Wind_Speed
28 27 25 24 23 23 23 22 20 18 15 14 12 12 12 12 10 9 9 8 6 6 6 7 7 7 7 7 7 8 7 8 8 9 9 9 9 9 9 9 10 9 9 9
27 25 24 26 26 25 24 22 20 19 16 15 14 14 13 13 13 12 10 9 8 7 7 7 8 8 8 8 8 8 9 8 8 8 9 9 10 10 9 10 10 10 9 10
25 24 26 27 27 27 25 22 20 18 17 17 16 16 16 14 14 13 12 10 9 8 8 8 9 9 9 8 8 8 8 8 8 8 8 8 8 9 9 9 9 10 10 11
27 28 28 28 27 26 24 22 21 20 19 19 19 18 16 14 14 14 12 12 10 10 9 9 9 9 9 9 8 9 9 9 8 7 7 8 8 9 9 9 9 10 10 9
27 28 28 28 26 26 24 24 23 22 21 22 21 21 18 17 16 15 13 12 11 10 10 10 10 9 9 9 9 9 9 9 9 8 8 8 9 9 9 9 9 9 9 9
28 29 29 28 27 26 26 26 26 25 24 24 22 23 21 19 16 15 14 12 12 11 10 10 10 10 9 9 10 10 10 10 10 9 9 10 10 10 10 9 9 9 9 9
29 30 29 29 28 28 28 28 28 28 27 25 23 24 20 17 17 16 15 13 12 11 10 10 9 9 9 9 9 10 10 11 11 10 10 10 9 10 10 10 10 9 9 9
29 29 28 28 28 27 27 28 28 28 27 24 24 23 19 17 18 17 16 14 13 11 10 10 10 9 9 9 9 10 11 11 11 11 11 10 10 10 10 10 10 10 10 10
27 28 28 28 27 27 27 28 28 27 26 25 24 22 20 19 19 19 18 15 13 12 11 10 10 9 9 9 9 10 11 11 11 11 11 10 11 11 11 11 11 11 10 10
26 27 27 27 28 28 27 27 29 29 28 26 24 22 20 19 19 18 16 13 12 11 11 10 9 9 10 10 10 10 11 12 12 12 11 11 11 11 11 12 12 12 11 11
25 27 27 28 30 28 29 30 30 30 29 27 24 22 19 17 16 16 14 13 13 11 11 10 10 9 9 10 11 11 11 12 12 12 11 11 11 11 11 11 11 11 12 12
25 26 28 28 28 28 29 29 30 30 29 27 25 22 19 17 16 17 15 14 13 11 11 11 10 9 9 11 11 12 12 12 13 12 11 10 10 11 10 10 11 12 12 12
27 27 28 28 29 30 30 29 30 30 29 28 26 22 20 19 16 16 15 14 13 11 10 11 11 11 11 11 11 12 12 12 12 11 11 11 10 11 12 11 12 12 12 12
28 29 29 28 27 28 29 30 32 32 31 29 27 24 23 21 18 16 14 13 12 11 11 12 13 12 12 12 12 12 11 12 12 12 12 12 12 12 12 13 13 14 14 13
29 30 29 28 28 29 29 29 30 32 31 30 28 26 23 22 19 18 16 15 14 12 12 12 12 13 12 13 13 12 12 12 12 12 13 12 13 13 14 14 14 15 15 15
30 31 30 30 30 30 31 30 30 31 30 29 28 27 26 24 22 20 19 17 15 14 13 14 14 14 13 13 13 13 13 13 14 14 13 13 13 14 14 14 14 15 15 15
31 31 32 32 32 32 33 31 31 31 31 30 28 26 26 26 25 22 21 19 16 16 15 15 15 14 14 14 14 14 14 14 13 13 14 14 14 14 13 14 14 14 15 15
32 32 32 32 33 35 30 30 31 31 31 30 28 26 25 25 24 22 21 20 18 18 16 15 15 15 15 14 15 15 14 14 14 15 15 15 15 15 15 15 15 15 14 15
32 32 33 33 34 35 32 30 30 30 29 29 29 28 26 26 25 23 21 20 19 19 17 16 16 15 15 15 15 14 14 14 14 15 15 15 15 15 14 15 16 16 16 16
33 33 34 34 34 35 32 32 32 31 31 30 29 28 27 27 26 24 23 22 20 18 16 15 15 15 14 14 14 13 13 13 14 14 14 14 14 14 15 15 16 16 16 17
34 34 34 34 34 34 32 33 33 32 31 30 30 29 28 27 25 25 24 22 20 19 17 16 15 15 14 14 14 14 14 14 14 14 14 15 15 15 15 15 16 17 17 17
34 34 33 33 34 34 34 34 34 32 30 30 30 30 29 27 25 25 24 22 20 19 19 18 17 16 15 15 15 15 15 15 15 15 15 14 14 14 15 16 17 18 17 17
34 34 34 34 33 32 33 33 32 30 30 30 29 30 28 27 26 25 24 23 22 21 19 18 18 16 16 15 16 16 15 15 15 15 15 15 15 15 16 17 17 18 18 18
35 34 33 33 32 32 31 32 31 30 30 29 29 29 28 27 25 24 23 22 21 20 19 17 16 16 16 16 16 17 16 17 17 17 17 17 17 18 18 18 18 19 19 19
33 33 31 31 31 30 30 31 31 31 29 27 28 28 28 27 26 24 22 22 21 20 19 17 16 16 16 17 17 17 18 18 18 18 18 18 19 19 19 19 19 19 20 20
32 33 31 30 30 30 28 29 30 30 29 29 28 27 26 25 24 24 22 21 21 21 20 18 18 17 18 17 17 18 18 18 19 19 19 19 19 19 19 20 20 20 21 22

GEFSCGP_500_meanwind_204.txt.gz
Wind_Speed
27 26 25 24 24 24 23 20 19 19 19 18 16 14 13 11 10 9 8 7 6 6 5 5 6 6 7 7 8 8 8 9 9 9 9 9 9 9 8 8 9 9 9 9
28 27 26 26 26 25 24 21 20 21 21 20 19 17 15 13 11 11 10 9 8 6 6 6 6 7 8 8 9 9 9 9 9 8 9 9 10 10 9 9 9 9 9 10
27 26 28 28 27 26 24 22 22 23 23 22 20 19 17 15 14 13 12 11 9 8 7 7 7 8 9 9 9 9 9 9 8 9 9 9 9 10 10 10 10 9 9 10
29 29 29 28 27 26 24 23 24 24 24 22 21 19 17 15 14 13 12 11 11 10 9 9 9 9 9 10 10 10 10 10 9 8 8 9 10 10 10 10 9 10 10 11
29 29 29 28 27 26 24 25 26 26 25 24 22 20 17 16 14 12 12 12 12 12 12 11 11 11 11 11 11 11 11 11 9 9 9 9 10 10 11 10 10 10 11 11
30 30 30 29 28 28 28 28 28 27 27 25 22 21 17 16 14 13 11 12 13 13 13 13 13 12 12 12 12 12 12 11 10 9 10 10 11 11 11 11 11 11 11 11
30 30 30 30 30 30 30 30 30 30 29 27 23 22 18 16 15 14 13 13 14 15 14 13 13 13 13 13 13 13 12 12 11 11 11 11 11 11 11 12 12 12 12 12
29 30 30 30 30 30 30 30 30 30 29 27 24 22 18 16 16 15 15 15 15 14 13 13 13 13 14 14 13 13 12 12 12 12 12 12 12 12 12 12 13 13 13 13
28 28 29 29 30 30 31 31 30 30 30 28 25 22 20 18 17 15 15 14 14 13 13 13 14 15 14 14 14 13 12 12 12 13 13 13 12 13 14 14 14 14 14 14
28 28 28 29 31 31 31 31 30 30 30 28 26 23 21 19 18 17 16 14 13 12 12 13 13 15 14 13 13 12 11 11 12 13 13 13 13 14 14 14 14 14 14 13
28 29 29 30 31 31 31 31 31 30 30 28 26 23 20 18 18 17 15 14 14 13 12 12 13 14 12 13 12 11 11 11 11 12 13 13 13 13 12 13 14 14 14 14
27 28 28 29 30 31 31 30 29 29 29 28 26 22 20 18 17 16 14 14 13 13 13 13 13 13 13 13 12 11 10 11 11 11 12 12 13 14 14 13 13 14 14 14
27 27 28 29 30 31 31 30 30 29 28 28 25 22 20 19 17 16 15 15 14 14 13 13 13 13 14 14 13 12 11 11 12 12 12 12 13 14 14 13 13 13 14 13
26 27 27 27 27 28 30 30 29 29 28 26 25 22 21 20 18 17 16 16 16 15 14 13 13 14 14 15 14 13 13 13 13 13 13 13 14 14 14 14 14 14 14 14
27 27 27 27 27 28 29 29 29 29 28 27 24 22 21 21 20 18 17 17 17 16 15 14 14 13 14 15 15 14 15 15 15 15 14 14 14 15 16 15 15 15 15 15
27 28 27 27 28 28 29 29 29 28 28 27 25 24 22 21 21 19 18 17 16 16 15 15 15 15 14 14 15 16 16 16 16 15 15 15 16 16 15 15 15 15 16 16
27 27 27 27 28 29 29 29 29 28 27 26 25 23 23 23 21 20 19 17 16 16 16 16 16 15 15 16 16 16 17 17 17 16 16 16 16 16 16 16 15 15 16 16
28 27 27 27 28 30 29 28 28 28 27 26 24 23 23 22 22 22 21 20 18 17 16 16 16 16 17 17 16 16 16 16 16 16 16 16 16 16 14 14 14 15 15 15
29 29 28 28 29 30 29 28 28 28 27 26 24 23 22 22 22 21 21 21 20 18 16 15 15 16 16 16 16 17 18 17 16 16 16 16 15 15 14 15 15 15 15 15
31 31 31 30 29 29 29 28 29 28 28 25 25 23 22 22 21 20 20 21 19 18 16 16 16 16 15 15 16 17 17 17 16 16 16 16 15 15 15 15 16 15 16 16
33 33 32 32 31 28 27 28 28 29 26 25 25 24 22 22 21 21 22 21 21 19 18 17 17 17 16 15 15 16 16 16 15 15 16 16 16 16 15 15 16 17 17 18
33 33 34 33 31 29 27 27 27 27 26 27 26 25 24 23 22 22 22 21 21 19 19 18 18 17 16 16 16 16 16 16 15 16 17 17 16 16 17 17 17 18 18 18
35 34 33 32 32 30 28 27 27 27 26 26 27 26 25 24 24 23 22 22 21 20 20 19 18 18 17 16 15 15 16 16 17 17 17 17 16 16 17 18 19 19 19 20
35 34 34 33 31 30 28 28 27 26 26 25 25 26 25 25 25 26 24 23 22 21 20 20 19 18 17 16 16 16 16 16 16 17 17 17 18 18 18 19 20 20 20 21
35 33 33 32 31 30 29 28 27 26 25 25 26 25 26 26 26 25 24 23 23 21 19 18 18 17 17 17 17 17 17 17 17 18 18 18 18 18 19 19 19 20 20 22
34 33 32 31 30 30 29 28 27 26 26 25 25 25 25 25 25 25 24 23 22 22 20 19 18 17 17 17 17 17 17 17 17 18 18 18 18 18 19 20 20 21 22 23